Regional Weather Roundup
Issued by NWS Mobile, AL

Home | Current Version | Previous Version | Text Only | Print | Product List | Glossary On
Versions: 1 2 3 4 5 6 7 8 9 10 11 12 13 14 15 16 17 18 19 20 21 22 23 24 25 26 27 28 29 30 31 32 33 34 35 36 37 38 39 40 41 42 43 44 45 46 47 48 49 50
000
ASUS44 KMOB 030413
RWRMOB
REGIONAL WEATHER ROUNDUP
NATIONAL WEATHER SERVICE MOBILE AL
1000 PM CST FRI DEC 02 2016

NOTE: "FAIR" INDICATES FEW OR NO CLOUDS BELOW 12,000 FEET WITH NO
      SIGNIFICANT WEATHER AND/OR OBSTRUCTIONS TO VISIBILITY.

  * THESE STATIONS ARE PART OF THE UNIVERSITY OF SOUTH ALABAMA
    MESONET AND ARE NOT UNDER NWS OR FAA QUALITY CONTROL.

ALZ061>064-030500-
COASTAL ALABAMA

CITY           SKY/WX    TMP DP  RH WIND       PRES   REMARKS
MOBILE REG APT CLOUDY    57  33  40 NE8       30.24S
BROOKLEY FIELD MOCLDY    61  38  42 NE13      30.24F
USA CAMPUS*      N/A     57  34  41 E3        30.24R
DOG RIVER*       N/A     59  39  47 E6        31.05S


CITY           SKY/WX    TMP DP  RH WIND       PRES   REMARKS
GULF SHORES    CLOUDY    56  36  46 NE6       30.23R

$$

ALZ051>060-030500-
INTERIOR SOUTHWEST AND SOUTH CENTRAL ALABAMA

CITY           SKY/WX    TMP DP  RH WIND       PRES   REMARKS
GREENVILLE     CLOUDY    47  39  74 N5        30.24F
EVERGREEN      NOT AVBL
ATMORE*          N/A     54  36  50 N6        30.25S
ANDALUSIA/OPP  PTCLDY    57  32  38 NE5       30.25R
ANDALUSIA*       N/A     54  34  47 NE6       30.23R
FLORALA APT    PTCLDY    52  34  50 NE8       30.25S
FLORALA*         N/A     52  36  54 CALM      31.02S

$$

FLZ001>006-030500-
WESTERN FLORIDA PANHANDLE

CITY           SKY/WX    TMP DP  RH WIND       PRES   REMARKS
PENSACOLA      NOT AVBL
NAS PENSACOLA  CLOUDY    60  33  36 NE8       30.21S
MILTON         CLOUDY    52  34  50 N3        30.23F
WHTNG S FIELD  CLOUDY    56  36  47 NE6       30.24S


CITY           SKY/WX    TMP DP  RH WIND       PRES   REMARKS
JAY*             N/A     54  34  47 NE5       30.24F
DUKE FIELD     MOCLDY    52  36  54 NE1       30.23S
CRESTVIEW      NOT AVBL
VALPARAISO     CLOUDY    56  33  41 NE8       30.22F
DESTIN         NOT AVBL

$$

MSZ076-079-030500-
INTERIOR SOUTHEAST MISSISSIPPI

CITY           SKY/WX    TMP DP  RH WIND       PRES   REMARKS
LEAKESVILLE*   NOT AVBL
AGRICOLA*      NOT AVBL

$$

MARINE OBSERVATIONS

STATION/POSITION TIME  TEMP    WIND        PRES    WAVE
                       AIR SEA DIR/SP/G            HT/PER
                 (UTC) (F)     (DEG/KT/KT) (MB)    (FT/S)
PASCAGOULA       0348   59      20/  5/  6 1023.5R
PETIT BOIS ISLND 0348   62      60/ 18/ 21 1023.8R
GRAND BAY        0245   58      40/  6     1024.0S
KATRINA CUT      0330   61      60/ 18     1023.0S
CEDAR POINT      0330   60      50/ 13     1023.0R
E DAUPHIN ISLAND 0400   60      60/ 15/ 17 1023.5R
MIDDLE BAY LIGHT 0330   60      30/ 15     1023.4R
USCG MOBILE BAY  0348   59 63   60/ 10/ 12 1024.3F
STATE DOCKS      0348   58 65              1023.6F
MEAHER PARK      0330   57      30/  5     1023.7R
WEEKS BAY        0245   53                   N/A
FORT MORGAN      0348   60      70/ 16/ 19 1022.9R
12 S ORANGE BCH  0350   65 72   70/ 19/ 23 1022.9R   3/ 5
PENSACOLA BAY    0348   59 64   30/  7/ 11 1023.2F
64 S DAUPHIN ISL 0350   70 76   70/ 17/ 25 1021.6R
67 S FORT MORGAN 0330   68      70/ 23     1021.3R

$$

SELECTED LOCATIONS ACROSS THE REGION

CITY           SKY/WX    TMP DP  RH WIND       PRES   REMARKS
NEW ORLEANS    LGT RAIN  61  47  59 E12       30.19S
GULFPORT       CLOUDY    58  38  47 NE7       30.23R
PASCAGOULA AP  CLOUDY    56  38  50 N3        30.24R
PASCAGOULA*    NOT AVBL
HATTIESBURG    CLOUDY    52  43  71 N3        30.26R
LAUREL         CLOUDY    54  36  50 NE3       30.27R
MERIDIAN       CLOUDY    47  39  74 N3        30.27S
JACKSON        CLOUDY    52  33  48 E6        30.24F
MONTGOMERY     PTCLDY    50  33  52 CALM      30.29R
TROY           PTCLDY    45  42  89 CALM      30.27S
ASHFORD*         N/A     54  34  47 NE6       30.23R
DOTHAN         NOT AVBL
PANAMA CITY    NOT AVBL

$$




USA.gov is the U.S. government's official web portal to all federal, state and local government web resources and services.